Fort Myers, FL

9:36 AM EDT on March 29, 2017 (GMT -0400)
Page

Weather History for KFMY - May, 2013

Change the Weather History Date:

Saturday, May 4, 2013

  Actual Average Record
Temperature  
Mean Temperature 77 °F 77 °F  
Max Temperature 83 °F 88 °F 94 °F (1953)
Min Temperature 71 °F 66 °F 54 °F (1971)
Degree Days  
Heating Degree Days 0 0  
Month to date heating degree days 0 0  
Since 1 July heating degree days 201 287  
Cooling Degree Days 12 12  
Month to date cooling degree days 38 46  
Year to date cooling degree days 784 676  
Growing Degree Days 26 (Base 50)    
Moisture  
Dew Point 66 °F    
Average Humidity 72    
Maximum Humidity 84    
Minimum Humidity 58    
Precipitation  
Precipitation T in 0.05 in 1.85 in (1911)
Month to date precipitation 2.16 0.22  
Year to date precipitation 8.51 9.37  
Sea Level Pressure  
Sea Level Pressure 29.76 in    
Wind  
Wind Speed 12 mph (WNW)    
Max Wind Speed 25 mph    
Max Gust Speed 33 mph    
Visibility 10 miles    
Events      
T = Trace of Precipitation, MM = Missing Value Source: NWS Daily Summary

Daily Weather History Graph

Daily Weather History Graph

Search for Another Location

Airport or City:

Trip Planner

Search our weather history database for the weather conditions in past years. The results will help you decide how hot, cold, wet, or windy it might be!

Date:

Astronomy

May. 04, 2013 Rise Set
Actual Time 6:47 AM EDT 8:01 PM EDT
Civil Twilight 6:22 AM EDT 8:26 PM EDT
Nautical Twilight 5:53 AM EDT 8:55 PM EDT
Astronomical Twilight 5:23 AM EDT 9:25 PM EDT
Moon 3:15 AM EDT (5/4) 3:24 PM EDT (5/4)
Length of Visible Light 14h 03m
Length of Day
13h 14m
Waning Crescent, 27% of the Moon is Illuminated
May 4
Waning Crescent
May 9
New
May 18
First Quarter
May 25
Full
May 31
Last Quarter

Hourly Weather History & Observations

Time (EDT) Temp. Heat Index Dew Point Humidity Pressure Visibility Wind Dir Wind Speed Gust Speed Precip Events Conditions
12:02 AM 73.4 °F - 66.2 °F 78% 29.76 in 10.0 mi NW 4.6 mph - N/A   Mostly Cloudy
12:14 AM 73.4 °F - 66.2 °F 78% 29.76 in 10.0 mi NW 5.8 mph - N/A   Scattered Clouds
12:53 AM 73.0 °F - 66.9 °F 81% 29.76 in 10.0 mi WNW 4.6 mph - N/A   Clear
1:53 AM 72.0 °F - 66.9 °F 84% 29.74 in 10.0 mi West 6.9 mph - N/A   Clear
2:53 AM 72.0 °F - 66.9 °F 84% 29.73 in 10.0 mi West 6.9 mph - N/A   Clear
3:53 AM 71.1 °F - 66.9 °F 87% 29.72 in 10.0 mi West 6.9 mph - N/A   Clear
4:53 AM 71.1 °F - 66.9 °F 87% 29.71 in 10.0 mi West 8.1 mph - N/A   Clear
5:53 AM 71.1 °F - 66.9 °F 87% 29.72 in 10.0 mi West 6.9 mph - N/A   Clear
6:53 AM 71.1 °F - 66.0 °F 84% 29.75 in 10.0 mi West 6.9 mph - N/A   Clear
7:53 AM 73.9 °F - 66.0 °F 76% 29.75 in 10.0 mi West 8.1 mph - N/A   Clear
8:53 AM 75.9 °F - 66.0 °F 71% 29.76 in 10.0 mi West 13.8 mph - N/A   Scattered Clouds
9:36 AM 77.0 °F - 66.2 °F 69% 29.76 in 10.0 mi West 15.0 mph - N/A   Mostly Cloudy
9:53 AM 78.1 °F - 66.0 °F 66% 29.77 in 10.0 mi West 13.8 mph - N/A   Mostly Cloudy
10:37 AM 78.8 °F - 66.2 °F 65% 29.77 in 10.0 mi WNW 16.1 mph - N/A   Mostly Cloudy
10:53 AM 79.0 °F - 66.9 °F 66% 29.78 in 10.0 mi West 15.0 mph 23.0 mph N/A   Mostly Cloudy
11:53 AM 81.0 °F 83.0 °F 66.0 °F 60% 29.78 in 10.0 mi WNW 16.1 mph - N/A   Mostly Cloudy
12:53 PM 82.0 °F 84.9 °F 68.0 °F 62% 29.78 in 10.0 mi West 17.3 mph - N/A   Scattered Clouds
1:53 PM 82.0 °F 84.5 °F 66.9 °F 60% 29.77 in 10.0 mi WNW 16.1 mph 25.3 mph 0.00 in   Scattered Clouds
2:53 PM 82.9 °F 85.0 °F 66.0 °F 56% 29.76 in 10.0 mi WNW 16.1 mph 26.5 mph N/A   Partly Cloudy
3:14 PM 82.4 °F 84.6 °F 66.2 °F 58% 29.75 in 10.0 mi NW 17.3 mph 26.5 mph N/A   Mostly Cloudy
3:53 PM 80.1 °F 81.9 °F 64.9 °F 60% 29.75 in 10.0 mi WNW 17.3 mph - N/A   Mostly Cloudy
4:21 PM 80.6 °F 82.3 °F 64.4 °F 58% 29.74 in 10.0 mi WNW 20.7 mph 26.5 mph N/A   Scattered Clouds
4:53 PM 78.1 °F - 64.9 °F 64% 29.76 in 10.0 mi WNW 16.1 mph 26.5 mph N/A   Mostly Cloudy
5:53 PM 78.1 °F - 63.0 °F 60% 29.76 in 10.0 mi NW 19.6 mph 23.0 mph N/A   Mostly Cloudy
6:53 PM 75.9 °F - 63.0 °F 64% 29.76 in 10.0 mi WNW 18.4 mph 24.2 mph N/A   Partly Cloudy
7:53 PM 73.9 °F - 64.0 °F 71% 29.78 in 10.0 mi WNW 15.0 mph - N/A   Clear
8:53 PM 73.0 °F - 64.0 °F 73% 29.79 in 10.0 mi WNW 10.4 mph - N/A   Clear
9:53 PM 72.0 °F - 64.0 °F 76% 29.82 in 10.0 mi West 10.4 mph - N/A   Clear
10:53 PM 71.1 °F - 66.0 °F 84% 29.83 in 10.0 mi West 9.2 mph - N/A   Clear
11:53 PM 71.1 °F - 66.9 °F 87% 29.83 in 10.0 mi West 11.5 mph 18.4 mph N/A   Partly Cloudy